Change the Weather History Date:

Thursday, April 18, 2013

  Actual Average Record
Temperature  
Mean Temperature 30 °F -  
Max Temperature 33 °F 48 °F 84 °F (2005)
Min Temperature 26 °F 26 °F 6 °F (2014)
Degree Days  
Heating Degree Days 36    
Moisture  
Dew Point 29 °F    
Average Humidity 98    
Maximum Humidity 100    
Minimum Humidity 87    
Precipitation  
Precipitation 0.60 in - - ()
Sea Level Pressure  
Sea Level Pressure 29.87 in    
Wind  
Wind Speed 3 mph (North)    
Max Wind Speed 13 mph    
Max Gust Speed 21 mph    
Visibility 1 miles    
Events Snow    
Averages and records for this station are not official NWS values.
T = Trace of Precipitation, MM = Missing Value Source: NWS Daily Summary

Daily Weather History Graph

Daily Weather History Graph

Search for Another Location

Airport or City:

Trip Planner

Search our weather history database for the weather conditions in past years. The results will help you decide how hot, cold, wet, or windy it might be!

Date:

Astronomy

Apr. 18, 2013 Rise Set
Actual Time 6:13 AM CDT 8:05 PM CDT
Civil Twilight 5:40 AM CDT 8:38 PM CDT
Nautical Twilight 4:59 AM CDT 9:19 PM CDT
Astronomical Twilight 4:14 AM CDT 10:05 PM CDT
Moon 12:20 PM CDT (4/18) 2:26 AM CDT (4/18)
Length of Visible Light 14h 58m
Length of Day
13h 51m
First Quarter, 52% of the Moon is Illuminated
Apr 18
First Quarter
Apr 25
Full
May 2
Last Quarter
May 9
New
May 17
First Quarter

Hourly Weather History & Observations

Time (CDT) Temp. Windchill Dew Point Humidity Pressure Visibility Wind Dir Wind Speed Gust Speed Precip Events Conditions
12:12 AM 28.4 °F - 28.4 °F 100% 30.12 in 1.0 mi Calm Calm - 0.01 in Snow Light Snow
12:32 AM 28.4 °F - 28.4 °F 100% 30.12 in 0.8 mi Calm Calm - 0.02 in Snow Light Snow
12:52 AM 28.4 °F - 28.4 °F 100% 30.10 in 0.5 mi Calm Calm - 0.05 in Snow Snow
1:12 AM 28.4 °F - 28.4 °F 100% 30.09 in 0.8 mi Calm Calm - 0.02 in Snow Light Snow
1:32 AM 28.4 °F - 28.4 °F 100% 30.08 in 0.8 mi Calm Calm - 0.03 in Snow Light Snow
1:52 AM 28.4 °F - 28.4 °F 100% 30.06 in 0.5 mi Calm Calm - 0.05 in Snow Snow
2:12 AM 28.4 °F - 28.4 °F 100% 30.05 in 0.8 mi Calm Calm - 0.02 in Snow Light Snow
2:32 AM 26.6 °F 22.6 °F 26.6 °F 100% 30.04 in 1.2 mi NNE 3.5 mph - 0.03 in Snow Light Snow
2:52 AM 26.6 °F 22.6 °F 26.6 °F 100% 30.03 in 1.5 mi NE 3.5 mph - 0.03 in Snow Light Snow
3:12 AM 26.6 °F - 26.6 °F 100% 30.02 in 0.2 mi Calm Calm - 0.01 in Snow Heavy Snow
3:32 AM 26.6 °F - 26.6 °F 100% 30.01 in 0.2 mi Calm Calm - 0.01 in Snow Heavy Snow
3:52 AM 26.6 °F - 26.6 °F 100% 30.01 in 0.2 mi Calm Calm - 0.04 in Snow Heavy Snow
4:32 AM 26.6 °F - 26.6 °F 100% 30.00 in 1.0 mi Calm Calm - 0.08 in Snow Light Snow
4:52 AM 26.6 °F - 26.6 °F 100% 29.99 in 1.5 mi Calm Calm - 0.10 in Snow Light Snow
5:12 AM 26.6 °F - 26.6 °F 100% 29.98 in 1.2 mi Calm Calm - 0.02 in Snow Light Snow
5:32 AM 26.6 °F - 26.6 °F 100% 29.98 in 0.8 mi Calm Calm - 0.04 in Snow Light Snow
5:52 AM 26.6 °F - 26.6 °F 100% 29.96 in 1.0 mi Calm Calm - 0.05 in Snow Light Snow
6:12 AM 26.6 °F - 26.6 °F 100% 29.96 in 1.8 mi Calm Calm - N/A Snow Light Snow
6:32 AM 26.6 °F - 26.6 °F 100% 29.96 in 0.8 mi Calm Calm - 0.01 in Snow Light Snow
6:52 AM 26.6 °F - 26.6 °F 100% 29.97 in 1.0 mi Calm Calm - 0.02 in Snow Light Snow
7:12 AM 26.6 °F - 26.6 °F 100% 29.97 in 0.8 mi Calm Calm - 0.01 in Snow Light Snow
7:32 AM 26.6 °F 22.6 °F 26.6 °F 100% 29.96 in 1.0 mi NNW 3.5 mph - 0.01 in Snow Light Snow
7:52 AM 26.6 °F - 26.6 °F 100% 29.95 in 1.2 mi Calm Calm - 0.02 in Snow Light Snow
8:12 AM 26.6 °F - 26.6 °F 100% 29.95 in 2.5 mi Calm Calm - N/A Snow Light Snow
8:32 AM 28.4 °F - 26.6 °F 93% 29.94 in 4.0 mi Calm Calm - 0.01 in Snow Light Snow
8:52 AM 28.4 °F 23.3 °F 28.4 °F 100% 29.94 in 2.5 mi North 4.6 mph - 0.01 in Snow Light Snow
9:12 AM 28.4 °F 24.6 °F 28.4 °F 100% 29.94 in 3.0 mi North 3.5 mph - N/A Snow Light Snow
9:32 AM 28.4 °F 24.6 °F 28.4 °F 100% 29.93 in 1.8 mi North 3.5 mph - N/A Snow Light Snow
9:52 AM 28.4 °F 23.3 °F 28.4 °F 100% 29.92 in 2.5 mi North 4.6 mph - N/A Snow Light Snow
10:12 AM 30.2 °F 25.4 °F 28.4 °F 93% 29.90 in 1.2 mi North 4.6 mph - N/A Snow Light Snow
10:32 AM 30.2 °F 25.4 °F 28.4 °F 93% 29.89 in 1.2 mi North 4.6 mph - N/A Snow Light Snow
10:52 AM 30.2 °F 25.4 °F 30.2 °F 100% 29.89 in 2.5 mi North 4.6 mph - N/A Snow Light Snow
11:12 AM 32.0 °F 27.5 °F 30.2 °F 93% 29.88 in 3.0 mi North 4.6 mph - N/A Snow Light Snow
11:32 AM 33.8 °F 27.0 °F 30.2 °F 87% 29.86 in 2.0 mi North 8.1 mph - N/A Snow Light Snow
11:52 AM 33.8 °F 27.0 °F 30.2 °F 87% 29.86 in 3.0 mi North 8.1 mph - N/A Snow Light Snow
12:12 PM 32.0 °F 24.8 °F 30.2 °F 93% 29.84 in 4.0 mi North 8.1 mph - N/A Snow Light Snow
12:52 PM 33.8 °F 27.0 °F 30.2 °F 87% 29.82 in 7.0 mi North 8.1 mph - N/A Snow Light Snow
1:12 PM 32.0 °F 24.8 °F 30.2 °F 93% 29.81 in 5.0 mi North 8.1 mph - N/A Snow Light Snow
1:32 PM 32.0 °F 24.2 °F 30.2 °F 93% 29.81 in 3.0 mi North 9.2 mph - N/A Snow Light Snow
1:52 PM 30.2 °F 22.6 °F 30.2 °F 100% 29.81 in 2.5 mi North 8.1 mph - N/A Snow Light Snow
2:12 PM 32.0 °F 26.4 °F 30.2 °F 93% 29.82 in 1.8 mi North 5.8 mph - N/A Snow Light Snow
2:32 PM 32.0 °F 25.6 °F 30.2 °F 93% 29.82 in 1.5 mi North 6.9 mph - N/A Snow Light Snow
2:53 PM 30.2 °F 23.4 °F 30.2 °F 100% 29.81 in 0.8 mi NNW 6.9 mph - 0.01 in Snow Light Snow
3:12 PM 30.2 °F 24.3 °F 30.2 °F 100% 29.80 in 0.8 mi North 5.8 mph - 0.01 in Snow Light Snow
3:32 PM 30.2 °F 21.9 °F 30.2 °F 100% 29.80 in 0.8 mi North 9.2 mph - 0.02 in Snow Light Snow
3:52 PM 30.2 °F 24.3 °F 30.2 °F 100% 29.79 in 1.0 mi North 5.8 mph - 0.03 in Snow Light Snow
4:12 PM 30.2 °F 25.4 °F 30.2 °F 100% 29.79 in 1.0 mi North 4.6 mph - N/A Snow Light Snow
4:32 PM 30.2 °F 23.4 °F 30.2 °F 100% 29.78 in 1.2 mi North 6.9 mph - 0.01 in Snow Light Snow
4:52 PM 30.2 °F 25.4 °F 30.2 °F 100% 29.78 in 1.0 mi North 4.6 mph - 0.02 in Snow Light Snow
5:12 PM 30.2 °F 24.3 °F 30.2 °F 100% 29.77 in 1.0 mi North 5.8 mph - 0.01 in Snow Light Snow
5:32 PM 30.2 °F 23.4 °F 30.2 °F 100% 29.76 in 1.0 mi North 6.9 mph - 0.01 in Snow Light Snow
5:52 PM 30.2 °F 23.4 °F 30.2 °F 100% 29.76 in 0.8 mi North 6.9 mph - 0.03 in Snow Light Snow
6:12 PM 30.2 °F 24.3 °F 30.2 °F 100% 29.75 in 0.8 mi NNW 5.8 mph - 0.01 in Snow Light Snow
6:32 PM 30.2 °F 24.3 °F 30.2 °F 100% 29.75 in 1.0 mi NNW 5.8 mph - 0.03 in Snow Light Snow
6:52 PM 30.2 °F 23.4 °F 30.2 °F 100% 29.74 in 1.0 mi NNW 6.9 mph - 0.03 in Snow Light Snow
7:12 PM 30.2 °F 23.4 °F 28.4 °F 93% 29.73 in 1.0 mi NNW 6.9 mph - 0.01 in Snow Light Snow
7:32 PM 30.2 °F 21.9 °F 30.2 °F 100% 29.73 in 0.8 mi North 9.2 mph - 0.02 in Snow Light Snow
7:52 PM 30.2 °F 23.4 °F 28.4 °F 93% 29.73 in 1.0 mi North 6.9 mph - 0.03 in Snow Light Snow
8:12 PM 30.2 °F 22.6 °F 28.4 °F 93% 29.72 in 1.0 mi North 8.1 mph - N/A Snow Light Snow
8:32 PM 30.2 °F 20.8 °F 28.4 °F 93% 29.73 in 0.5 mi North 11.5 mph 16.1 mph 0.02 in Snow Light Snow
8:52 PM 28.4 °F 19.7 °F 28.4 °F 100% 29.72 in 0.5 mi North 9.2 mph - 0.03 in Snow Snow
9:12 PM 28.4 °F 19.7 °F 28.4 °F 100% 29.72 in 0.5 mi North 9.2 mph 16.1 mph 0.01 in Snow Snow
9:32 PM 28.4 °F 18.0 °F 28.4 °F 100% 29.70 in 0.8 mi North 12.7 mph 20.7 mph 0.02 in Snow Light Snow
9:52 PM 28.4 °F 19.7 °F 28.4 °F 100% 29.70 in 1.2 mi North 9.2 mph 18.4 mph 0.02 in Snow Light Snow
10:32 PM 28.4 °F 20.4 °F 28.4 °F 100% 29.73 in 1.0 mi North 8.1 mph - 0.01 in Snow Light Snow
10:52 PM 28.4 °F 22.2 °F 28.4 °F 100% 29.72 in 1.0 mi North 5.8 mph - 0.01 in Snow Light Snow
11:12 PM 28.4 °F 21.2 °F 28.4 °F 100% 29.70 in 0.8 mi North 6.9 mph 16.1 mph 0.01 in Snow Light Snow
11:32 PM 28.4 °F 19.7 °F 28.4 °F 100% 29.67 in 0.5 mi North 9.2 mph 16.1 mph 0.01 in Snow Light Snow
11:52 PM 28.4 °F 18.5 °F 26.6 °F 93% 29.66 in 0.2 mi North 11.5 mph 19.6 mph 0.02 in Snow Snow